Home > Weather > Greensboro > Past weeks

Flag for U.S.A. Weather for the Past 2 Weeks in Greensboro, North Carolina, U.S.A.

Now
45 °F

Scattered clouds.


Feels Like: 41 °F
Forecast: 33 / 46 °F
Wind: 7 mph from North

Location: Piedmont Triad International Airport

Current Time: Feb 5, 2016 at 6:01:20 PM

Latest Report: Feb 5, 2016 at 4:54 PM


Visibility: 10 mi

Pressure: 30.32 "Hg

Humidity: 24%

Dew point: 10 °F

Location of GreensboroLocation

Historic Weather in Greensboro — Graph

°F

Greensboro Temperature Yesterday

Maximum temperature yesterday: 61 °F (at 12:54 AM)
Minimum temperature yesterday: 44 °F (at 11:54 PM)
Average temperature yesterday: 53 °F

High & Low Weather Summary for the Past Weeks

 TemperatureHumidityPressure
High68 °F (Feb 1, 3:54 PM)100% (Feb 1, 9:54 PM)30.35 "Hg (Feb 1, 9:54 PM)
Low20 °F (Jan 24, 5:54 AM)22% (Jan 24, 2:54 PM)29.56 "Hg (Jan 23, 3:54 AM)
Average43 °F67%30.02 "Hg
* Reported Jan 21 3:54 PM — Feb 5 3:54 PM, Greensboro, Weather by CustomWeather, © 2016

Note: Actual official high and low records may vary slightly from our data, if they occured in-between our weather recording intervals... More about our weather records

Advertising

Greensboro Weather History for the Previous 24 Hours

 ConditionsComfort  
Time TempWeatherWind HumidityBarometerVisibility
3:54 PM
Fri, Feb 5
46 °FPassing clouds.9 mph23%30.31 "Hg10 mi
2:54 PM46 °FPassing clouds.12 mph23%30.30 "Hg10 mi
1:54 PM44 °FSunny.7 mph27%30.31 "Hg10 mi
12:54 PM43 °FSunny.15 mph28%30.31 "Hg10 mi
11:54 AM42 °FSunny.15 mph29%30.34 "Hg10 mi
10:54 AM39 °FSunny.7 mph36%30.35 "Hg10 mi
9:54 AM38 °FPassing clouds.10 mph39%30.33 "Hg10 mi
8:54 AM36 °FScattered clouds.13 mph46%30.31 "Hg10 mi
7:54 AM36 °FScattered clouds.10 mph56%30.26 "Hg10 mi
6:54 AM36 °FPartly cloudy.9 mph57%30.20 "Hg10 mi
5:54 AM37 °FOvercast.12 mph57%30.16 "Hg10 mi
4:54 AM38 °FLight snow. Mostly cloudy.5 mph68%30.13 "Hg9 mi
3:54 AM36 °FOvercast.6 mph85%30.10 "Hg10 mi
2:54 AM35 °FLight rain. Overcast.6 mph92%30.09 "Hg10 mi
1:54 AM36 °FLight rain. Overcast.7 mph89%30.07 "Hg8 mi
12:54 AM42 °FLight rain. Overcast.15 mph53%30.04 "Hg10 mi
11:54 PM
Thu, Feb 4
44 °FOvercast.13 mph51%30.03 "Hg10 mi
10:54 PM45 °FOvercast.12 mph49%30.03 "Hg10 mi
9:54 PM47 °FOvercast.7 mph52%30.03 "Hg10 mi
8:54 PM48 °FOvercast.6 mph50%30.03 "Hg10 mi
7:54 PM48 °FOvercast.7 mph50%30.03 "Hg10 mi
6:54 PM49 °FOvercast.7 mph52%30.01 "Hg10 mi
Weather by CustomWeather, © 2016

See weather overviewHow to use our weather pages